Elkins, WV

2:56 AM EDT on April 22, 2018 (GMT -0400)
Elkins-Randolph County

Weather History for KEKN - March, 2013

Change the Weather History Date:

Saturday, March 30, 2013

  Actual Average Record
Temperature  
Mean Temperature 41 °F 44 °F  
Max Temperature 54 °F 57 °F 83 °F (1998)
Min Temperature 28 °F 32 °F 10 °F (1941)
Degree Days  
Heating Degree Days 24 21  
Month to date heating degree days 903 761  
Since 1 July heating degree days 5150 5082  
Cooling Degree Days 0 0  
Month to date cooling degree days 0 0  
Year to date cooling degree days 0 0  
Moisture  
Dew Point 26 °F    
Average Humidity 60    
Maximum Humidity 92    
Minimum Humidity 28    
Precipitation  
Precipitation 0.00 in 0.14 in 1.33 in (1938)
Month to date precipitation 2.80 3.83  
Year to date precipitation 9.41 10.16  
Snow  
Snow 0.00 in 0.20 in 4.60 in (1991)
Month to date snowfall 16.8 12.2  
Since 1 September snowfall 75.5 77.7  
Snow Depth 0.00 in    
Sea Level Pressure  
Sea Level Pressure 30.20 in    
Wind  
Wind Speed 2 mph (West)    
Max Wind Speed 14 mph    
Max Gust Speed 20 mph    
Visibility 9 miles    
Events      
T = Trace of Precipitation, MM = Missing Value Source: NWS Daily Summary

Daily Weather History Graph

Daily Weather History Graph

Search for Another Location

Airport or City:

Astronomy

Mar. 30, 2013 Rise Set
Actual Time 7:06 AM EDT 7:41 PM EDT
Civil Twilight 6:40 AM EDT 8:08 PM EDT
Nautical Twilight 6:08 AM EDT 8:39 PM EDT
Astronomical Twilight 5:36 AM EDT 9:12 PM EDT
Moon 11:43 PM EDT (3/30) 9:02 AM EDT (3/30)
Length of Visible Light 13h 28m
Length of Day
12h 34m
Waning Gibbous, 86% of the Moon is Illuminated
Mar 30
Waning Gibbous
Apr 3
Last Quarter
Apr 10
New
Apr 18
First Quarter
Apr 25
Full

Hourly Weather History & Observations

Time (EDT) Temp. Windchill Dew Point Humidity Pressure Visibility Wind Dir Wind Speed Gust Speed Precip Events Conditions
12:51 AM 34.0 °F - 28.0 °F 79% 30.25 in 9.0 mi Calm Calm - N/A   Overcast
1:51 AM 32.0 °F - 27.0 °F 82% 30.25 in 9.0 mi Calm Calm - N/A   Overcast
2:51 AM 32.0 °F - 27.0 °F 82% 30.24 in 9.0 mi Calm Calm - N/A   Overcast
3:51 AM 30.9 °F - 27.0 °F 85% 30.24 in 9.0 mi Calm Calm - N/A   Overcast
4:51 AM 30.9 °F - 26.1 °F 82% 30.23 in 9.0 mi Calm Calm - N/A   Overcast
5:51 AM 28.9 °F - 25.0 °F 85% 30.24 in 7.0 mi Calm Calm - N/A   Mostly Cloudy
6:51 AM 28.9 °F - 26.1 °F 89% 30.25 in 7.0 mi Calm Calm - N/A   Mostly Cloudy
7:51 AM 30.9 °F - 27.0 °F 85% 30.26 in 6.0 mi Calm Calm - N/A   Mostly Cloudy
8:51 AM 34.0 °F - 28.0 °F 79% 30.28 in 9.0 mi Calm Calm - N/A   Mostly Cloudy
9:51 AM 39.0 °F - 28.0 °F 65% 30.29 in 10.0 mi Calm Calm - N/A   Mostly Cloudy
10:51 AM 45.0 °F - 28.0 °F 52% 30.26 in 10.0 mi Calm Calm - N/A   Partly Cloudy
11:51 AM 46.0 °F 41.9 °F 27.0 °F 47% 30.25 in 10.0 mi NW 8.1 mph - N/A   Clear
12:51 PM 46.9 °F - 25.0 °F 42% 30.22 in 10.0 mi West 5.8 mph - N/A   Scattered Clouds
1:51 PM 50.0 °F - 26.1 °F 39% 30.20 in 10.0 mi Variable 6.9 mph - N/A   Scattered Clouds
2:51 PM 52.0 °F - 24.1 °F 34% 30.17 in 10.0 mi Variable 4.6 mph - N/A   Clear
3:51 PM 51.1 °F - 21.9 °F 32% 30.16 in 10.0 mi SW 3.5 mph - N/A   Partly Cloudy
4:51 PM 53.1 °F - 21.9 °F 30% 30.13 in 10.0 mi Variable 3.5 mph - N/A   Clear
5:51 PM 53.1 °F - 21.0 °F 29% 30.13 in 10.0 mi WSW 4.6 mph - N/A   Clear
6:51 PM 53.1 °F - 21.0 °F 29% 30.13 in 10.0 mi Calm Calm - N/A   Clear
7:51 PM 46.0 °F - 23.0 °F 40% 30.13 in 10.0 mi Calm Calm - N/A   Clear
8:51 PM 39.0 °F - 27.0 °F 62% 30.14 in 10.0 mi Calm Calm - N/A   Clear
9:51 PM 37.0 °F - 27.0 °F 67% 30.13 in 10.0 mi Calm Calm - N/A   Clear
10:51 PM 34.0 °F - 28.0 °F 79% 30.11 in 10.0 mi Calm Calm - N/A   Clear
11:51 PM 33.1 °F - 27.0 °F 78% 30.09 in 10.0 mi Calm Calm - N/A   Clear